الصفحة الرئيسية
METAR-TAF:

METAR-TAF

مطار :

Limon Municipal Airport

Limon, كولورادو, الولايات المتحدة

دائرة عرض: 39-16-24N, خط طول: 103-40-00W, ارتفاع: 1635 متر

مراقبة الطقس الحالي

تاريخ ووقت الإصدار 20 دقيقة قبل الساعة 12:55UTC
ريح 8 عقدة من الغرب/الشمال الغربي
درجة الحرارة -12°درجة مئوية
الرطوبة 66%
ضغط 1016 hPa
الرؤية: 16.1 كم
سماء صافية

METAR: KLIC 231255Z AUTO 29008KT 10SM CLR M12/M17 A2999 RMK AO2 SLP215 T11171172 $

زمن: 06:15 (13:15 UTC)


TAF: مفقودة

أرصاد الطقس والتوقعات من أكثر من 4000 مطار (تقارير الطقس للمطار METAR والتنبؤ بالطقس بالمطارTAF).

المحطات المتاحة هي النقط الصفراء والحمراء على الخريطة.

حرك المؤشر فوق النقطة لمعرفة اسم المحطة.

ثم انقر لمعرفة أرصاد وتوقعات الطقس.

لتغيير الخارطة: اضغط على الأزرار الخضراء مع رمز الصليب الأسود للتكبير. على الزر الأخضر مع شرطة للتصغير، أو على الأسهم الخضراء للخرائط المجاورة.


METAR-TAF: